EZY27A LQSA-LATI

Flight info

Callsign EZY27A
Flight time 0h 37m
Altitude 29000
Route KUTAK DCT DOSOS DCT INLOT
Aircraft A320/M-SDE3FGHIRWY/LB1

Departure

Time 2026-05-05 13:41
Airport Sarajevo International Airport (LQSA)

Arrival

Time 2026-05-05 14:19
Airport Tirana International Airport Mother Teresa (LATI)
Time Latitude Longitude Altitude Speed Heading
2026-05-05 13:41 43.87389 18.30751 3943 ft 239 kts
2026-05-05 13:41 43.89090 18.30612 4372 ft 255 kts 343°
2026-05-05 13:41 43.90841 18.29991 5126 ft 268 kts 342°
2026-05-05 13:42 43.92688 18.29308 5752 ft 280 kts 342°
2026-05-05 13:42 43.94602 18.28602 6476 ft 288 kts 343°
2026-05-05 13:42 43.96612 18.28273 7316 ft 297 kts
2026-05-05 13:42 43.98600 18.29073 8208 ft 302 kts 30°
2026-05-05 13:43 44.00186 18.30957 9115 ft 302 kts 56°
2026-05-05 13:43 44.00855 18.32645 9727 ft 301 kts 73°
2026-05-05 13:43 44.01164 18.35478 10549 ft 296 kts 98°
2026-05-05 13:43 44.00627 18.38204 11315 ft 293 kts 121°
2026-05-05 13:44 43.98830 18.40915 12317 ft 290 kts 152°
2026-05-05 13:44 43.96929 18.41935 12699 ft 304 kts 171°
2026-05-05 13:44 43.95484 18.42265 12842 ft 319 kts 172°
2026-05-05 13:44 43.93208 18.42748 13064 ft 340 kts 173°
2026-05-05 13:45 43.90836 18.43240 13683 ft 348 kts 173°
2026-05-05 13:45 43.88426 18.43746 14350 ft 352 kts 173°
2026-05-05 13:45 43.85990 18.44268 15010 ft 356 kts 173°
2026-05-05 13:45 43.83526 18.44804 15627 ft 361 kts 173°
2026-05-05 13:46 43.81029 18.45352 16196 ft 366 kts 173°
2026-05-05 13:46 43.78537 18.45902 16808 ft 370 kts 173°
2026-05-05 13:46 43.75978 18.46468 17418 ft 374 kts 173°
2026-05-05 13:46 43.73387 18.47041 18021 ft 378 kts 173°
2026-05-05 13:47 43.70772 18.47618 18580 ft 383 kts 173°
2026-05-05 13:47 43.68126 18.48195 19119 ft 387 kts 174°
2026-05-05 13:47 43.65448 18.48782 19636 ft 392 kts 173°
2026-05-05 13:47 43.62733 18.49318 20150 ft 396 kts 175°
2026-05-05 13:48 43.59975 18.49745 20636 ft 401 kts 176°
2026-05-05 13:48 43.57183 18.50103 21116 ft 405 kts 178°
2026-05-05 13:48 43.54358 18.50435 21603 ft 410 kts 178°
2026-05-05 13:48 43.51500 18.50775 22075 ft 415 kts 177°
2026-05-05 13:49 43.48609 18.51137 22543 ft 419 kts 177°
2026-05-05 13:49 43.45690 18.51520 22980 ft 424 kts 176°
2026-05-05 13:49 43.42737 18.51921 23411 ft 428 kts 176°
2026-05-05 13:49 43.39754 18.52375 23814 ft 433 kts 172°
2026-05-05 13:50 43.36838 18.53528 24177 ft 438 kts 162°
2026-05-05 13:50 43.33996 18.54932 24575 ft 440 kts 162°
2026-05-05 13:50 43.31112 18.56374 24965 ft 442 kts 162°
2026-05-05 13:50 43.28217 18.57835 25352 ft 444 kts 162°
2026-05-05 13:51 43.25314 18.59302 25720 ft 446 kts 162°
2026-05-05 13:51 43.22389 18.60778 26086 ft 448 kts 162°
2026-05-05 13:51 43.19452 18.62255 26455 ft 450 kts 162°
2026-05-05 13:51 43.16499 18.63733 26816 ft 452 kts 162°
2026-05-05 13:52 43.13536 18.65206 27168 ft 454 kts 162°
2026-05-05 13:52 43.10556 18.66679 27507 ft 456 kts 162°
2026-05-05 13:52 43.07561 18.68160 27835 ft 459 kts 162°
2026-05-05 13:52 43.04547 18.69652 28164 ft 461 kts 162°
2026-05-05 13:53 43.01521 18.71154 28461 ft 463 kts 162°
2026-05-05 13:53 42.98519 18.72650 28746 ft 466 kts 162°
2026-05-05 13:53 42.95471 18.74167 29009 ft 468 kts 162°
2026-05-05 13:53 42.92417 18.75680 29081 ft 464 kts 162°
2026-05-05 13:54 42.86379 18.78658 29089 ft 460 kts 162°
2026-05-05 13:54 42.80345 18.81627 29086 ft 460 kts 163°
2026-05-05 13:55 42.74331 18.84581 29090 ft 460 kts 163°
2026-05-05 13:55 42.68307 18.87536 29106 ft 460 kts 162°
2026-05-05 13:56 42.62284 18.90490 29108 ft 460 kts 163°
2026-05-05 13:56 42.56263 18.93430 29105 ft 460 kts 163°
2026-05-05 13:57 42.50271 18.96345 29106 ft 460 kts 163°
2026-05-05 13:57 42.44243 18.99285 29104 ft 460 kts 163°
2026-05-05 13:58 42.38204 19.02218 29085 ft 461 kts 163°
2026-05-05 13:58 42.32167 19.05145 28910 ft 463 kts 163°
2026-05-05 13:59 42.26100 19.08082 27970 ft 461 kts 163°
2026-05-05 13:59 42.23089 19.09537 27276 ft 458 kts 163°
2026-05-05 14:00 42.17130 19.12415 25914 ft 452 kts 163°
2026-05-05 14:00 42.14176 19.13835 25245 ft 450 kts 163°
2026-05-05 14:00 42.11238 19.15246 24572 ft 448 kts 163°
2026-05-05 14:00 42.08305 19.16656 23917 ft 446 kts 163°
2026-05-05 14:01 42.05420 19.18045 23340 ft 441 kts 163°
2026-05-05 14:01 42.02555 19.19426 22833 ft 433 kts 163°
2026-05-05 14:01 41.99735 19.20778 22233 ft 425 kts 163°
2026-05-05 14:01 41.96967 19.22103 21247 ft 418 kts 162°
2026-05-05 14:02 41.94247 19.23405 20317 ft 411 kts 162°
2026-05-05 14:02 41.91573 19.24677 19442 ft 404 kts 162°
2026-05-05 14:02 41.88940 19.25926 18593 ft 398 kts 162°
2026-05-05 14:02 41.86380 19.27139 17655 ft 391 kts 162°
2026-05-05 14:03 41.83831 19.28347 16708 ft 385 kts 162°
2026-05-05 14:03 41.81330 19.29545 15794 ft 378 kts 161°
2026-05-05 14:03 41.78849 19.30735 14786 ft 376 kts 161°
2026-05-05 14:03 41.76396 19.31910 13772 ft 373 kts 161°
2026-05-05 14:04 41.74000 19.33047 12917 ft 364 kts 161°
2026-05-05 14:04 41.71637 19.34169 12061 ft 357 kts 161°
2026-05-05 14:04 41.69300 19.35278 11727 ft 356 kts 161°
2026-05-05 14:04 41.66963 19.36383 11478 ft 356 kts 161°
2026-05-05 14:05 41.64622 19.37484 11228 ft 356 kts 161°
2026-05-05 14:05 41.62284 19.38584 10985 ft 356 kts 161°
2026-05-05 14:05 41.59952 19.39686 10740 ft 354 kts 161°
2026-05-05 14:05 41.57630 19.40783 10501 ft 353 kts 161°
2026-05-05 14:06 41.55328 19.41868 10260 ft 347 kts 161°
2026-05-05 14:06 41.53115 19.42912 10023 ft 336 kts 161°
2026-05-05 14:06 41.50948 19.43936 9855 ft 323 kts 161°
2026-05-05 14:06 41.48854 19.44926 9576 ft 315 kts 162°
2026-05-05 14:07 41.46802 19.45894 9265 ft 309 kts 162°
2026-05-05 14:07 41.44792 19.46840 8961 ft 303 kts 161°
2026-05-05 14:07 41.42850 19.47755 8605 ft 293 kts 161°
2026-05-05 14:07 41.40964 19.48642 8214 ft 282 kts 161°
2026-05-05 14:08 41.39139 19.49496 7764 ft 273 kts 161°
2026-05-05 14:08 41.37366 19.50331 7282 ft 267 kts 161°
2026-05-05 14:08 41.35625 19.51154 6795 ft 262 kts 161°
2026-05-05 14:08 41.33923 19.51954 6303 ft 257 kts 161°
2026-05-05 14:09 41.32267 19.52727 5805 ft 253 kts 161°
2026-05-05 14:09 41.30615 19.53495 5302 ft 249 kts 161°
2026-05-05 14:09 41.29013 19.54240 5052 ft 235 kts 161°
2026-05-05 14:09 41.27530 19.54935 4858 ft 216 kts 161°
2026-05-05 14:10 41.26127 19.55590 4479 ft 212 kts 162°
2026-05-05 14:10 41.24748 19.56229 4187 ft 205 kts 162°
2026-05-05 14:10 41.23438 19.56839 4083 ft 194 kts 162°
2026-05-05 14:10 41.22180 19.57425 3999 ft 189 kts 162°
2026-05-05 14:11 41.20933 19.58003 4020 ft 190 kts 162°
2026-05-05 14:11 41.19714 19.58623 4010 ft 190 kts 153°
2026-05-05 14:11 41.18653 19.59675 4003 ft 192 kts 135°
2026-05-05 14:11 41.17896 19.61145 4011 ft 194 kts 116°
2026-05-05 14:12 41.17534 19.62870 4007 ft 196 kts 96°
2026-05-05 14:12 41.17582 19.64642 4003 ft 184 kts 85°
2026-05-05 14:12 41.17713 19.66293 4038 ft 178 kts 85°
2026-05-05 14:12 41.17838 19.67915 4022 ft 176 kts 85°
2026-05-05 14:13 41.17962 19.69525 4009 ft 176 kts 85°
2026-05-05 14:13 41.18087 19.71136 4008 ft 176 kts 85°
2026-05-05 14:13 41.18325 19.72725 3996 ft 176 kts 66°
2026-05-05 14:13 41.19052 19.74020 4008 ft 177 kts 39°
2026-05-05 14:14 41.20142 19.74727 4009 ft 175 kts 11°
2026-05-05 14:14 41.21350 19.74743 4005 ft 174 kts 352°
2026-05-05 14:14 41.22558 19.74580 3874 ft 175 kts 353°
2026-05-05 14:14 41.23748 19.74423 3601 ft 173 kts 352°
2026-05-05 14:15 41.24948 19.74261 3370 ft 173 kts 352°
2026-05-05 14:15 41.26139 19.74102 3125 ft 171 kts 352°
2026-05-05 14:15 41.27330 19.73943 2914 ft 171 kts 352°
2026-05-05 14:15 41.28517 19.73785 2687 ft 170 kts 352°
2026-05-05 14:16 41.29697 19.73628 2466 ft 170 kts 352°
2026-05-05 14:16 41.30871 19.73470 2229 ft 168 kts 352°
2026-05-05 14:16 41.32020 19.73315 2015 ft 168 kts 352°
2026-05-05 14:16 41.33183 19.73160 1762 ft 168 kts 351°
2026-05-05 14:17 41.34312 19.73011 1499 ft 158 kts 351°
2026-05-05 14:17 41.35371 19.72874 1270 ft 148 kts 351°
2026-05-05 14:17 41.36375 19.72743 1038 ft 143 kts 351°
2026-05-05 14:17 41.37363 19.72613 827 ft 143 kts 350°
2026-05-05 14:18 41.38360 19.72478 595 ft 145 kts 350°
2026-05-05 14:18 41.39359 19.72343 383 ft 143 kts 349°
2026-05-05 14:18 41.40343 19.72213 167 ft 141 kts 349°
2026-05-05 14:18 41.41203 19.72093 128 ft 88 kts 354°
2026-05-05 14:19 41.41552 19.72046 123 ft 34 kts 353°
2026-05-05 14:19 41.41780 19.72015 122 ft 24 kts 355°
2026-05-05 14:19 41.41878 19.71944 123 ft 16 kts 273°
2026-05-05 14:19 41.41868 19.71784 123 ft 18 kts 264°
2026-05-05 14:20 41.41866 19.71755 123 ft 0 kts 264°
2026-05-05 14:20 41.41866 19.71754 123 ft 1 kts 264°
2026-05-05 14:20 41.41862 19.71694 136 ft 13 kts 266°
2026-05-05 14:21 41.41865 19.71613 135 ft 4 kts 295°
2026-05-05 14:21 41.41886 19.71592 134 ft 3 kts 333°
2026-05-05 14:21 41.41899 19.71589 136 ft 0 kts 352°
2026-05-05 14:22 41.41946 19.71582 139 ft 8 kts 354°
2026-05-05 14:22 41.42001 19.71576 136 ft 8 kts 354°
2026-05-05 14:22 41.42049 19.71569 133 ft 6 kts 354°
2026-05-05 14:23 41.42052 19.71569 133 ft 2 kts 354°
2026-05-05 14:23 41.42068 19.71530 133 ft 5 kts 270°
2026-05-05 14:23 41.42068 19.71505 134 ft 0 kts 267°
2026-05-05 14:23 41.42067 19.71497 134 ft 2 kts 267°